| time (UTC) | temp C | wind direction | speed KPH | gust KPH | rain 1hr cm | rain 24hr cm | rain mn cm | humidity % | barometer mb |
| 20260902000038 | 28 | 13 | 0.0 | 0.0 | 0.00 | 0.36 | 0.36 | 59 | 1009.7 |
| 20260901234530 | 28 | 13 | 0.0 | 8.0 | 0.00 | 0.36 | 0.36 | 63 | 1009.7 |
| 20260901233031 | 29 | 50 | 0.0 | 8.0 | 0.00 | 0.36 | 0.36 | 64 | 1009.8 |
| 20260901231522 | 29 | 25 | 0.0 | 4.8 | 0.00 | 0.36 | 0.36 | 65 | 1009.8 |
| 20260901230017 | 30 | 53 | 0.0 | 0.0 | 0.00 | 0.36 | 0.36 | 66 | 1009.8 |
| 20260901224530 | 30 | 53 | 0.0 | 0.0 | 0.00 | 0.36 | 0.36 | 68 | 1009.9 |
| 20260901223008 | 30 | 53 | 0.0 | 4.8 | 0.00 | 0.36 | 0.36 | 68 | 1009.9 |
| 20260901221504 | 30 | 43 | 0.0 | 4.8 | 0.00 | 0.36 | 0.36 | 68 | 1009.9 |
| 20260901220107 | 30 | 333 | 0.0 | 1.6 | 0.00 | 0.36 | 0.36 | 68 | 1010.0 |
| 20260901214555 | 30 | 313 | 0.0 | 1.6 | 0.00 | 0.36 | 0.36 | 67 | 1010.1 |
| 20260901213050 | 30 | 328 | 0.0 | 0.0 | 0.00 | 0.36 | 0.36 | 66 | 1010.0 |
| 20260901211546 | 31 | 327 | 0.0 | 6.4 | 0.00 | 0.36 | 0.36 | 66 | 1010.0 |
| 20260901210042 | 31 | 5 | 0.0 | 1.6 | 0.00 | 0.36 | 0.36 | 67 | 1010.1 |
| 20260901204536 | 31 | 134 | 0.0 | 11.3 | 0.00 | 0.36 | 0.36 | 66 | 1010.3 |
| 20260901203038 | 31 | 360 | 3.2 | 11.3 | 0.00 | 0.36 | 0.36 | 68 | 1010.6 |
| 20260901201528 | 30 | 44 | 3.2 | 9.7 | 0.00 | 0.36 | 0.36 | 68 | 1010.7 |
| 20260901200027 | 29 | 21 | 0.0 | 6.4 | 0.00 | 0.36 | 0.36 | 66 | 1011.0 |
| 20260901194518 | 28 | 9 | 0.0 | 4.8 | 0.00 | 0.36 | 0.36 | 60 | 1011.0 |
| 20260901193014 | 27 | 5 | 0.0 | 6.4 | 0.00 | 0.36 | 0.36 | 53 | 1011.3 |
| 20260901191510 | 27 | 9 | 0.0 | 8.0 | 0.00 | 0.36 | 0.36 | 29 | 1011.4 |
| 20260901190015 | 26 | 349 | 0.0 | 6.4 | 0.03 | 0.36 | 0.36 | 100 | 1011.5 |
| 20260901184601 | 25 | 336 | 0.0 | 0.0 | 0.20 | 0.36 | 0.36 | 100 | 1011.6 |
| 20260901183057 | 23 | 336 | 0.0 | 0.0 | 0.25 | 0.36 | 0.36 | 100 | 1011.8 |
| 20260901181558 | 23 | 335 | 0.0 | 0.0 | 0.36 | 0.36 | 0.36 | 100 | 1011.2 |
| 20260901180047 | 25 | 336 | 0.0 | 0.0 | 0.33 | 0.33 | 0.33 | 15 | 1013.0 |
| 20260901174543 | 27 | 5 | 0.0 | 0.0 | 0.15 | 0.15 | 0.15 | 60 | 1012.7 |
| 20260901173039 | 29 | 5 | 0.0 | 0.0 | 0.08 | 0.08 | 0.08 | 69 | 1012.5 |
| 20260901171545 | 29 | 12 | 0.0 | 6.4 | 0.00 | 0.00 | 0.00 | 68 | 1012.4 |
| 20260901170030 | 28 | 10 | 1.6 | 6.4 | 0.00 | 0.00 | 0.00 | 62 | 1012.4 |
| 20260901164525 | 28 | 11 | 0.0 | 6.4 | 0.00 | 0.00 | 0.00 | 59 | 1012.3 |
| 20260901163020 | 27 | 13 | 1.6 | 8.0 | 0.00 | 0.00 | 0.00 | 52 | 1012.4 |
| 20260901161519 | 27 | 350 | 0.0 | 0.0 | 0.00 | 0.00 | 0.00 | 46 | 1012.5 |
| 20260901160015 | 26 | 350 | 0.0 | 0.0 | 0.00 | 0.00 | 0.00 | 33 | 1012.5 |
| 20260901154507 | 26 | 350 | 0.0 | 0.0 | 0.00 | 0.00 | 0.00 | 36 | 1012.5 |
| 20260901153003 | 26 | 355 | 0.0 | 0.0 | 0.00 | 0.00 | 0.00 | 39 | 1012.6 |
| 20260901151606 | 25 | 355 | 0.0 | 0.0 | 0.00 | 0.00 | 0.00 | 30 | 1012.5 |
| 20260901150055 | 25 | 355 | 0.0 | 0.0 | 0.00 | 0.00 | 0.00 | 3 | 1012.4 |
| 20260901144550 | 24 | 355 | 0.0 | 0.0 | 0.00 | 0.00 | 0.00 | 100 | 1012.4 |
| 20260901143052 | 23 | 276 | 0.0 | 0.0 | 0.00 | 0.00 | 0.00 | 100 | 1012.6 |
| 20260901141540 | 23 | 276 | 0.0 | 0.0 | 0.00 | 0.00 | 0.00 | 100 | 1012.8 |
| 20260901140036 | 22 | 276 | 0.0 | 0.0 | 0.00 | 0.00 | 0.00 | 100 | 1012.8 |
| 20260901134535 | 21 | 275 | 0.0 | 0.0 | 0.00 | 0.00 | 0.00 | 100 | 1012.7 |
| 20260901133026 | 20 | 275 | 0.0 | 0.0 | 0.00 | 0.00 | 0.00 | 100 | 1012.7 |
| 20260901131522 | 20 | 275 | 0.0 | 0.0 | 0.00 | 0.00 | 0.00 | 100 | 1012.6 |
| 20260901130018 | 20 | 275 | 0.0 | 0.0 | 0.00 | 0.00 | 0.00 | 100 | 1012.7 |
| 20260901124513 | -17 | 275 | 0.0 | 0.0 | 0.00 | 0.00 | 0.00 | 1012.6 | |
| 20260901123008 | -17 | 275 | 0.0 | 0.0 | 0.00 | 0.00 | 0.00 | 1012.4 | |
| 20260901121504 | -17 | 275 | 0.0 | 0.0 | 0.00 | 0.00 | 0.00 | 1012.3 | |
| 20260901114555 | -17 | 275 | 0.0 | 0.0 | 0.00 | 0.00 | 0.00 | 1012.1 | |
| 20260901113058 | -17 | 275 | 0.0 | 0.0 | 0.00 | 0.00 | 0.00 | 1012.2 | |
| 20260901111549 | -17 | 275 | 0.0 | 0.0 | 0.00 | 0.00 | 0.00 | 1012.1 | |
| 20260901110042 | -17 | 275 | 0.0 | 0.0 | 0.00 | 0.00 | 0.00 | 1012.2 | |
| 20260901104548 | -17 | 275 | 0.0 | 0.0 | 0.00 | 0.00 | 0.00 | 1012.1 | |
| 20260901103033 | 19 | 275 | 0.0 | 0.0 | 0.00 | 0.00 | 0.00 | 100 | 1012.0 |
| 20260901101532 | 19 | 275 | 0.0 | 0.0 | 0.00 | 0.00 | 0.00 | 100 | 1012.0 |
| 20260901100025 | 20 | 275 | 0.0 | 0.0 | 0.00 | 0.00 | 0.00 | 100 | 1012.1 |
| 20260901094520 | 20 | 275 | 0.0 | 0.0 | 0.00 | 0.00 | 0.00 | 100 | 1012.0 |
| 20260901093015 | 21 | 275 | 0.0 | 0.0 | 0.00 | 0.00 | 0.00 | 100 | 1012.0 |
| 20260901091511 | 21 | 275 | 0.0 | 0.0 | 0.00 | 0.00 | 0.00 | 100 | 1011.8 |
| 20260901090012 | 21 | 275 | 0.0 | 0.0 | 0.00 | 0.00 | 0.00 | 100 | 1011.8 |
| 20260901084502 | 20 | 275 | 0.0 | 0.0 | 0.00 | 0.00 | 0.00 | 100 | 1011.7 |
| 20260901083103 | 20 | 275 | 0.0 | 0.0 | 0.00 | 0.00 | 0.00 | 100 | 1011.9 |
| 20260901081602 | 21 | 275 | 0.0 | 0.0 | 0.00 | 0.00 | 0.00 | 100 | 1012.0 |
| 20260901080100 | 20 | 275 | 0.0 | 0.0 | 0.00 | 0.00 | 0.00 | 100 | 1012.1 |
| 20260901074555 | 20 | 275 | 0.0 | 0.0 | 0.00 | 0.00 | 0.00 | 100 | 1012.2 |
| 20260901073052 | 21 | 275 | 0.0 | 0.0 | 0.00 | 0.00 | 0.00 | 100 | 1012.3 |
| 20260901071546 | 21 | 275 | 0.0 | 0.0 | 0.00 | 0.00 | 0.00 | 100 | 1012.1 |
| 20260901070050 | 21 | 275 | 0.0 | 0.0 | 0.00 | 0.00 | 0.00 | 100 | 1012.1 |
| 20260901064543 | 21 | 275 | 0.0 | 0.0 | 0.00 | 0.00 | 0.00 | 100 | 1012.2 |
| 20260901063037 | 21 | 275 | 0.0 | 0.0 | 0.00 | 0.00 | 0.00 | 100 | 1012.1 |
| 20260901061529 | 21 | 275 | 0.0 | 0.0 | 0.00 | 0.00 | 0.00 | 100 | 1012.2 |
| 20260901060025 | 21 | 275 | 0.0 | 0.0 | 0.00 | 0.00 | 0.00 | 100 | 1012.1 |
| 20260901054520 | 21 | 275 | 0.0 | 0.0 | 0.00 | 0.00 | 0.00 | 100 | 1012.1 |
| 20260901053016 | 21 | 275 | 0.0 | 0.0 | 0.00 | 0.00 | 0.00 | 100 | 1012.0 |
| 20260901051511 | 22 | 275 | 0.0 | 0.0 | 0.00 | 0.00 | 0.00 | 100 | 1012.0 |
| 20260901050007 | 22 | 275 | 0.0 | 0.0 | 0.00 | 0.00 | 0.00 | 100 | 1011.9 |
| 20260901044505 | 22 | 275 | 0.0 | 0.0 | 0.00 | 0.00 | 0.00 | 100 | 1011.9 |
| 20260901043058 | 22 | 275 | 0.0 | 0.0 | 0.00 | 0.00 | 0.00 | 100 | 1011.8 |
| 20260901041555 | 22 | 275 | 0.0 | 0.0 | 0.00 | 0.00 | 0.00 | 100 | 1011.6 |
| 20260901040049 | 22 | 275 | 0.0 | 0.0 | 0.00 | 0.00 | 0.00 | 100 | 1011.5 |
| 20260901034544 | 22 | 275 | 0.0 | 0.0 | 0.00 | 0.00 | 0.00 | 100 | 1011.4 |
| 20260901033040 | 22 | 275 | 0.0 | 0.0 | 0.00 | 0.00 | 0.00 | 100 | 1011.4 |
| 20260901031536 | 22 | 275 | 0.0 | 0.0 | 0.00 | 0.00 | 0.00 | 100 | 1011.4 |
| 20260901030039 | 22 | 275 | 0.0 | 0.0 | 0.00 | 0.00 | 0.00 | 100 | 1011.4 |
| 20260901024530 | 22 | 275 | 0.0 | 0.0 | 0.00 | 0.00 | 0.00 | 100 | 1011.4 |
| 20260901023023 | 22 | 275 | 0.0 | 0.0 | 0.00 | 0.00 | 0.00 | 100 | 1011.3 |
| 20260901021518 | 23 | 275 | 0.0 | 0.0 | 0.00 | 0.00 | 0.00 | 100 | 1011.2 |
| 20260901020013 | 23 | 275 | 0.0 | 0.0 | 0.00 | 0.00 | 0.00 | 100 | 1011.1 |
| 20260901014508 | 23 | 275 | 0.0 | 0.0 | 0.00 | 0.00 | 0.00 | 100 | 1010.9 |
| 20260901013004 | 24 | 275 | 0.0 | 0.0 | 0.00 | 0.00 | 0.00 | 100 | 1010.6 |
| 20260901011607 | 25 | 275 | 0.0 | 0.0 | 0.00 | 0.00 | 0.00 | 100 | 1010.3 |
| 20260901010056 | 25 | 275 | 0.0 | 0.0 | 0.00 | 0.00 | 0.00 | 20 | 1010.3 |
| 20260901004556 | 26 | 275 | 0.0 | 0.0 | 0.00 | 0.00 | 0.00 | 36 | 1010.2 |
| 20260901003047 | 26 | 275 | 0.0 | 0.0 | 0.00 | 0.00 | 0.00 | 47 | 1009.9 |
| 20260901001544 | 27 | 275 | 0.0 | 0.0 | 0.00 | 0.00 | 0.00 | 55 | 1010.0 |